Location: Radomski Observatory
(40.2854°N, 79.5145°W)
Time: 15:40:03
(UTC-04:00)

Daily predictions for brighter satellites

Satellite Brightness Start Highest point End
(mag) Time Altitude Azimuth Time Altitude Azimuth Time Altitude Azimuth
ATLAS 2AS CENTAUR R/B 4.0 20:16:23 10° NNW 20:23:23 32° NE 20:29:56 10° E
H-2A R/B 3.3 20:22:01 10° W 20:26:07 16° SW 20:28:15 10° S
COSMOS 2428 3.1 20:20:49 10° S 20:26:09 41° ESE 20:31:29 10° NE
CZ-2D R/B 3.3 20:22:46 10° SSE 20:26:28 57° ENE 20:30:13 10° N
SL-16 R/B 4.3 20:22:09 10° WSW 20:27:15 33° WNW 20:32:22 10° N
Cosmos 2333 4.5 20:24:05 10° S 20:29:27 46° ESE 20:34:47 10° NE
FREGAT/IRIS 3.3 20:27:11 10° S 20:30:05 56° W 20:32:59 10° NNW
NOSS 7 (D) 4.4 20:28:08 10° SW 20:31:43 86° WNW 20:34:54 10° NNE
Cosmos 1844 Rocket 3.1 20:29:28 10° NNW 20:34:56 46° ENE 20:40:21 10° SE
Cosmos 1844 4.4 20:29:43 10° N 20:34:58 36° ENE 20:40:13 10° SE
Cosmos 2263 Rocket 3.8 20:31:33 10° NW 20:36:43 36° WSW 20:41:50 10° S
Cosmos 1455 3.5 20:35:11 10° SE 20:38:03 21° E 20:40:57 10° NE
Cosmos 2237 Rocket 3.5 20:39:24 10° SE 20:43:06 18° E 20:46:49 10° ENE
Cosmos 2219 Rocket 2.6 20:38:39 10° S 20:43:52 39° ESE 20:49:06 10° NE
Cosmos 1892 3.5 20:40:25 10° NNE 20:43:58 33° ENE 20:47:29 10° SE
Cosmos 2074 Rocket 4.2 20:38:00 10° S 20:44:18 82° W 20:50:37 10° N
ERS-2 2.1 20:41:13 10° SSE 20:44:51 72° ENE 20:48:31 10° N
Lacrosse 5 4.5 20:43:59 10° NW 20:46:14 13° N 20:48:29 10° NNE
BREEZE-M DEB (TANK) 3.9 20:42:12 10° NW 20:47:18 35° NNE 20:49:38 11° E
NOSS 2-1 (E) 3.1 20:45:15 10° SSW 20:48:48 61° ESE 20:52:42 10° NE
Cosmos 1610 Rocket 4.4 20:44:35 10° S 20:50:41 75° E 20:56:50 10° N
ATLAS CENTAUR R/B 2.2 20:48:19 10° SSE 20:51:10 22° ESE 20:54:05 10° ENE
Cosmos 2278 Rocket 3.6 20:47:18 10° N 20:51:46 23° NE 20:55:31 13° E
Timation 1 Rocket 4.5 20:50:37 10° NNW 20:56:31 58° ENE 21:01:55 12° SE
USA 186 0.7 20:55:32 11° SSE 20:57:34 76° E 20:59:49 10° N
Cosmos 1666 Rocket 3.7 20:53:35 10° N 20:58:02 59° E 21:02:25 10° SSE
Resurs 1-3 3.7 20:54:35 10° SSE 20:58:54 60° ENE 21:03:14 10° N
NOSS 3-3 (A) 4.0 20:54:41 10° SSW 21:00:29 57° ESE 21:06:50 10° NE
NOSS 3-3 (C) 4.0 20:54:48 10° SSW 21:00:36 56° ESE 21:06:56 10° NE
H-2A R/B 3.7 20:58:30 12° E 21:00:45 16° ENE 21:03:39 10° NNE
OAO 2 Rocket 3.9 20:56:24 10° WSW 21:01:21 45° S 21:04:58 17° ESE
YAOGAN 6 2.5 21:02:26 10° SSE 21:06:00 89° ENE 21:09:39 10° N
Meteor 2-21 Rocket 4.4 21:00:24 10° S 21:06:26 66° E 21:12:33 10° NNE
USA 267 4.1 21:07:02 10° ENE 21:12:13 25° SE 21:17:21 10° S
Sich 1 3.0 21:08:53 10° N 21:13:10 84° W 21:17:26 10° S
SAR-Lupe-3 4.5 21:10:14 10° NNE 21:13:49 65° ESE 21:17:22 10° S
Nadezhda 3 Rocket 4.0 21:08:08 10° N 21:14:28 85° E 21:20:49 10° S
Cosmos 1340 3.3 21:11:07 10° SSW 21:14:52 59° WNW 21:18:37 10° N
Cosmos 1151 Rocket 3.6 21:13:26 18° SSE 21:16:04 35° E 21:19:59 10° NNE
Cosmos 220 Rocket 4.4 21:12:56 10° N 21:17:07 43° ENE 21:19:12 25° SE
Cosmos 2251 Rocket 3.6 21:12:34 10° NNW 21:17:58 81° WSW 21:23:05 11° SSE
Cosmos 1939 Rocket 3.1 21:16:34 10° S 21:20:23 66° W 21:24:17 10° NNW
Envisat 4.4 21:20:08 10° SSW 21:24:49 37° W 21:29:32 10° NNW
Cosmos 1825 3.0 21:24:33 10° NNE 21:27:57 31° ENE 21:28:24 30° E
Meteor 2-3 Rocket 3.6 21:24:21 10° N 21:29:59 81° E 21:34:38 16° SSE
SL-16 R/B 3.8 21:33:18 17° ENE 21:33:18 17° ENE 21:35:28 10° ENE
Cosmos 2098 Rocket 4.0 21:31:01 29° ESE 21:31:48 31° E 21:35:27 10° NNE
Cosmos 1633 Rocket 3.3 21:27:38 10° NNW 21:31:58 70° W 21:35:51 13° S
Cosmos 2056 Rocket 4.5 21:32:53 26° ESE 21:33:10 26° E 21:37:37 10° NE
Cosmos 1869 4.0 21:34:42 33° E 21:34:47 33° E 21:38:25 10° NNE
Cosmos 2228 Rocket 3.0 21:32:02 17° S 21:35:20 64° E 21:39:42 10° NNE
Meteor 2-16 Rocket 4.5 21:32:40 10° S 21:38:49 84° W 21:44:59 10° N
SL-8 R/B 3.8 21:34:22 10° SW 21:38:59 52° SE 21:41:34 25° ENE
SL-24 R/B - RUBIN 2 4.2 21:35:56 10° NW 21:40:07 48° WSW 21:42:34 23° S
Cosmos 1515 Rocket 3.5 21:37:19 16° S 21:40:50 75° E 21:45:18 10° NNE
ARGOS 3.3 21:44:34 34° SE 21:46:38 53° ENE 21:51:50 10° N
Helios 1A 4.3 21:49:42 25° ENE 21:49:42 25° ENE 21:52:58 10° NNE
Cosmos 1624 Rocket 4.4 21:50:09 38° ESE 21:50:28 39° ESE 21:55:16 10° NE
GEOS 3 Rocket 3.8 21:45:39 10° NE 21:50:51 49° ESE 21:55:54 10° SSW
BREEZE-M DEB (TANK) 3.3 21:48:19 10° NW 21:51:02 30° NNE 21:51:02 30° NNE
SL-08 RB Rocket 4.0 21:52:57 42° E 21:53:30 44° ENE 21:57:45 10° N
MetOp-B 4.3 21:51:53 38° SE 21:53:36 55° ENE 21:58:49 10° N
Resurs 01 Rocket 3.3 21:52:59 10° SSW 21:56:57 32° W 22:00:56 10° NNW
Cosmos 1980 3.6 21:52:55 10° SSW 21:58:36 88° ESE 22:04:19 10° NNE
BREEZE-M DEB (TANK) 4.4 21:57:58 10° WNW 22:03:08 23° NNW 22:05:12 13° NNE
Cosmos 1727 Rocket 4.1 21:57:13 10° N 22:03:16 55° E 22:04:57 42° SE
Cosmos 1959 Rocket 4.3 22:00:08 18° S 22:04:49 85° E 22:10:59 10° N
Cosmos 2333 Rocket 3.0 21:59:26 10° SW 22:04:57 52° WNW 22:10:29 10° NNE
Meteor 2-10 Rocket 3.6 22:11:14 44° SSE 22:13:03 71° E 22:18:50 10° NNE
Cosmos 1470 Rocket 4.4 22:08:50 10° NNW 22:13:03 47° W 22:14:51 29° SSW
ATLAS 2AS CENTAUR R/B 3.0 22:07:15 10° NW 22:15:05 70° WSW 22:18:17 36° SSE
Cosmos 2218 Rocket 4.1 22:11:56 16° SSW 22:17:08 78° W 22:23:34 10° N
SL-08 R/B 4.4 22:15:09 30° S 22:18:31 87° E 22:24:58 10° N
Cosmos 1862 4.5 22:15:45 10° N 22:18:24 33° NE 22:18:24 33° NE
Terra 3.4 22:21:54 22° NE 22:21:54 22° NE 22:24:49 10° NNE
ATLAS 2A CENTAUR R/B 4.4 22:12:07 10° SW 22:24:26 27° S 22:24:57 27° S
Cosmos 1408 3.8 22:21:41 10° NNW 22:25:06 37° W 22:25:16 37° W
Cosmos 2237 Rocket 2.7 22:21:04 10° SW 22:26:36 59° WNW 22:32:10 10° NNE
Cosmos 2219 Rocket 4.1 22:22:58 10° WSW 22:27:53 30° WNW 22:32:49 10° N
ATLAS CENTAUR R/B 3.2 22:26:47 10° WSW 22:29:57 27° NW 22:33:17 10° N
SPOT 5 3.1 22:30:51 52° NE 22:30:51 52° NE 22:34:39 10° N
SPOT 1/Viking Rocket 3.7 22:31:21 56° ENE 22:31:21 56° ENE 22:36:20 10° N
Lacrosse 5 4.4 22:28:40 10° NNW 22:31:16 14° NNE 22:33:51 10° NE
Cosmos 2366 rocket 4.3 22:27:19 22° SSW 22:31:30 66° W 22:37:45 10° N
USA 81 3.9 22:27:23 10° N 22:32:41 85° E 22:32:58 80° SSE
Cosmos 2278 Rocket 2.7 22:30:39 10° NNW 22:36:11 54° WSW 22:37:23 46° SSW
H-2A R/B 2.2 22:39:07 59° SW 22:39:39 64° WSW 22:44:38 10° NNW
NOSS 3-4 (A) 3.9 22:38:21 10° NNW 22:45:24 68° NE 22:46:43 57° ESE
NOSS 3-4 (C) 3.9 22:38:27 10° NNW 22:45:30 67° NE 22:46:49 57° ESE
ATLAS 5 CENTAUR R/B 4.4 22:44:11 10° N 22:47:40 16° NE 22:49:39 14° NE
Cosmos 407 Rocket 3.5 22:43:18 10° NNW 22:48:01 75° NNW 22:48:01 75° NNW
ERS-1 Rocket 3.4 22:50:18 54° WSW 22:50:30 54° W 22:55:27 10° NNW
USA 267 3.2 22:49:06 10° NE 22:55:39 85° NW 23:02:12 10° SW
Cosmos 676 Rocket 4.4 23:00:52 10° NNW 23:05:05 57° N 23:05:05 57° N
SL-19 R/B 4.4 23:09:46 71° WNW 23:09:46 71° WNW 23:14:54 10° NNW
Cosmos 2344 3.4 23:10:53 69° S 23:11:48 78° ESE 23:20:01 10° NE
SL-16 R/B 2.6 23:15:04 59° WNW 23:15:16 59° WNW 23:20:52 10° NNE
Helios 1B rocket 4.3 23:12:10 10° N 23:14:22 28° NNW 23:14:22 28° NNW
USA 234 3.7 23:27:52 49° NE 23:28:30 50° NNE 23:34:46 10° NW
Cosmos 1934 Rocket 4.3 23:31:58 58° N 23:31:58 58° N 23:36:45 10° N
Cosmos 1943 Rocket 3.8 23:28:43 10° N 23:32:07 24° NE 23:32:07 24° NE
CZ-2C R/B 4.5 23:39:39 31° N 23:39:39 31° N 23:42:09 10° N
